Location: Datum
(53.6167°N, 9.8000°E)
Time: 06:58:30
(UTC+00:00)

Daily predictions for brighter satellites

Satellite Brightness Start Highest point End
(mag) Time Altitude Azimuth Time Altitude Azimuth Time Altitude Azimuth
Cosmos 1441 Rocket 3.6 19:36:20 10° SSE 19:39:56 43° E 19:43:32 10° NNE
Cosmos 2360 4.4 19:35:17 10° NNW 19:41:04 73° NE 19:46:48 10° SE
IRIDIUM 114 4.4 19:37:26 10° S 19:42:38 71° E 19:47:51 10° N
Cosmos 614 Rocket 4.3 19:38:44 10° S 19:43:38 45° ESE 19:48:36 10° NE
IGS 5A 3.9 19:42:01 10° SE 19:46:00 47° ENE 19:50:00 10° N
Cosmos 1900 4.4 19:41:53 10° SSW 19:46:45 60° SE 19:51:45 10° NE
USA 267 3.6 19:40:39 10° ENE 19:46:47 41° SE 19:52:54 10° SSW
GP-B 4.0 19:44:29 10° NNE 19:48:31 33° E 19:52:33 10° SSE
IRIDIUM 103 4.3 19:46:32 10° S 19:51:46 83° E 19:57:01 10° N
Cosmos 1821 Rocket 4.0 19:47:57 10° S 19:54:01 67° E 20:00:13 10° NNE
Cosmos 921 Rocket 4.0 19:50:13 10° N 19:54:07 33° ENE 19:57:57 10° ESE
CZ-2C R/B 3.7 19:49:55 10° NNE 19:54:38 82° ESE 19:59:12 10° SSW
COSMOS 2406 3.3 19:50:19 10° SSW 19:55:59 61° ESE 20:01:38 10° NE
Cosmos 1862 Rocket 4.1 19:52:15 10° N 19:56:34 44° ENE 20:00:50 10° SE
SL-16 R/B 3.4 19:51:32 10° NNW 19:56:38 32° NE 20:01:42 10° ESE
Intercosmos 25 3.7 19:51:31 10° NNW 19:56:40 78° W 20:00:11 10° S
Cosmos 1743 Rocket 4.4 19:52:43 10° SSW 19:57:05 55° WNW 20:01:31 10° N
Lacrosse 5 2.2 19:55:24 10° WNW 20:00:29 69° NNE 20:05:34 10° E
ERS-1 Rocket 3.6 19:56:23 10° SE 20:01:06 43° ENE 20:05:51 10° N
Cosmos 2369 3.9 19:56:08 10° NW 20:01:53 77° WSW 20:07:37 10° SSE
Cosmos 1862 3.6 20:01:11 10° SSW 20:05:14 76° WNW 20:09:20 10° N
Sich 1 3.1 20:01:43 10° S 20:06:09 74° E 20:10:36 10° NNE
Cosmos 1818 4.2 20:01:26 10° NW 20:06:42 50° SW 20:11:56 10° SSE
EP 3 4.5 20:04:22 10° NW 20:06:59 77° NE 20:09:56 13° SE
BREEZE-M DEB (TANK) 2.7 20:05:53 10° WSW 20:08:33 31° S 20:09:54 14° ESE
Cosmos 2123 Rocket 4.0 20:04:57 10° N 20:11:11 76° ENE 20:17:26 10° SSE
Cosmos 2082 Rocket 2.8 20:06:02 10° S 20:11:12 37° ESE 20:16:23 10° NE
Cosmos 2278 3.8 20:05:26 10° NNW 20:11:13 89° ENE 20:16:44 11° SSE
Spot 2 Rocket 3.5 20:11:57 10° SSE 20:17:05 90° SW 20:22:13 10° NNW
Meteor 1-4 Rocket 2.4 20:15:33 10° NNW 20:19:05 87° WSW 20:22:26 11° S
Cosmos 2322 Rocket 3.3 20:13:56 10° NNW 20:19:10 36° NE 20:24:24 10° ESE
CZ-2C R/B 3.8 20:17:16 10° N 20:22:12 45° WNW 20:27:06 10° SW
Cosmos 2239 Rocket 4.5 20:17:13 10° S 20:23:22 89° E 20:29:34 10° N
Cosmos 1184 Rocket 3.5 20:21:02 13° SSE 20:23:40 36° E 20:26:45 10° NNE
CARTOSAT-1 3.8 20:20:05 13° SSE 20:23:51 59° ENE 20:28:07 10° N
Cosmos 1190 Rocket 4.1 20:18:46 10° S 20:23:56 58° ESE 20:29:10 10° NNE
USA 234 3.5 20:18:46 12° SE 20:24:49 62° SW 20:31:18 10° WNW
Terra 2.4 20:21:08 13° SE 20:25:01 43° ENE 20:29:33 10° N
Cosmos 407 Rocket 3.5 20:21:34 10° SSW 20:26:51 72° ESE 20:32:09 10° NNE
Cosmos 1933 Rocket 4.5 20:24:16 14° SE 20:27:24 31° E 20:31:19 10° NNE
Cosmos 1605 Rocket 4.2 20:21:39 10° SSE 20:27:30 49° E 20:33:21 10° NNE
Cosmos 1666 Rocket 3.5 20:23:25 10° S 20:27:44 81° E 20:32:06 10° NNE
Okean 1 3.9 20:24:43 10° N 20:28:35 42° ENE 20:31:27 16° SE
Cosmos 1238 Rocket 3.2 20:28:02 18° SE 20:29:35 28° E 20:32:10 10° NNE
Meteor 1-27 Rocket 4.4 20:23:48 10° NNW 20:29:37 60° W 20:35:25 10° S
Cosmos 1437 Rocket 3.7 20:29:34 10° N 20:33:05 33° ENE 20:35:27 17° SE
Cosmos 2360 Rocket 3.6 20:28:16 10° NNW 20:33:14 30° NE 20:38:11 10° E
Meteor 1-19 Rocket 4.4 20:32:43 10° N 20:38:05 55° ENE 20:42:13 17° SE
CZ-4B DEB 4.3 20:35:36 17° SSE 20:38:07 84° ENE 20:41:29 10° NNW
ERBS 2.7 20:35:07 10° WSW 20:38:26 65° NNW 20:41:44 10° ENE
SPOT 5 2.6 20:35:54 16° SSE 20:39:19 71° ENE 20:43:42 10° NNW
USA 238 DEB 4.2 20:33:56 10° S 20:39:51 35° ESE 20:45:58 10° NE
USA 238 4.2 20:34:04 10° S 20:39:58 35° ESE 20:46:04 10° NE
Cosmos 1980 Rocket 2.5 20:36:41 10° NW 20:42:20 65° WSW 20:47:05 15° SSE
Cosmos 1703 Rocket 4.0 20:40:02 10° N 20:44:17 48° ENE 20:47:05 20° SE
Cosmos 2242 Rocket 3.7 20:39:54 10° N 20:44:21 63° ENE 20:47:29 19° SSE
SPOT 1/Viking Rocket 3.8 20:39:53 10° S 20:45:01 68° WSW 20:50:15 10° NNW
Cosmos 1763 Rocket 3.8 20:41:59 10° NNW 20:47:17 62° ENE 20:51:08 19° SE
Genesis I 3.9 20:44:32 10° NW 20:48:15 45° SW 20:50:44 19° SSE
SL-4 R/B 2.5 20:45:47 10° SW 20:49:10 30° SSE 20:51:35 15° E
BREEZE-M DEB (TANK) 3.0 20:46:43 10° WSW 20:49:41 52° SSE 20:57:56 10° E
ATLAS 5 CENTAUR R/B 4.3 20:46:41 10° WNW 20:50:49 20° WSW 20:55:20 10° SSW
Cosmos 405 Rocket 3.1 20:49:22 21° SSE 20:51:26 42° E 20:55:00 10° NNE
Cosmos 1140 Rocket 3.5 20:47:16 10° SSW 20:52:32 88° ESE 20:57:49 10° NNE
Cosmos 2333 Rocket 4.1 20:48:30 10° NNW 20:53:08 24° NNE 20:57:45 10° E
Cosmos 1697 Rocket 4.1 20:52:52 10° NW 20:57:43 31° WSW 21:02:33 10° SSW
USA 32 4.0 20:53:15 10° S 20:58:30 88° W 21:03:47 10° N
Cosmos 1633 Rocket 3.6 20:56:44 10° SSW 21:01:06 60° WNW 21:05:30 10° N
Cosmos 1833 Rocket 3.0 20:56:10 10° SW 21:01:46 72° NW 21:07:26 10° NNE
Meteor 1-18 Rocket 4.2 21:00:05 10° NNW 21:05:45 88° WSW 21:09:49 19° S
Okean 1-7 3.0 21:01:40 10° N 21:06:01 68° ENE 21:08:30 24° SSE
Cosmos 1867 3.6 21:02:46 10° SSW 21:08:06 60° SE 21:13:29 10° NE
CENTAUR R/B 3.2 21:04:46 18° SSE 21:08:25 32° ESE 21:14:31 10° NE
Resurs 01 Rocket 4.2 21:08:34 10° SW 21:11:23 16° W 21:14:13 10° NW
Okean 3 4.4 21:07:59 10° N 21:11:58 36° ENE 21:13:59 23° ESE
FALCON 9 DEB 3.7 21:11:41 10° SW 21:14:54 34° SSE 21:15:21 33° SE
Meteor 2-4 Rocket 3.8 21:09:42 10° N 21:15:27 67° ENE 21:18:54 24° SSE
Cosmos 1515 3.6 21:12:35 10° N 21:16:28 90° E 21:18:23 28° S
Cosmos 1850 Rocket 4.5 21:14:18 22° SSE 21:17:16 42° ESE 21:22:14 10° NE
deb Kosmos-1763 4.4 21:15:11 10° SW 21:18:47 66° WNW 21:22:27 10° NNE
SL-27 R/B 3.8 21:19:37 22° E 21:19:37 22° E 21:22:02 10° NE
Cosmos 44 3.5 21:15:11 10° NW 21:20:00 71° NE 21:23:09 23° ESE
ATLAS 5 CENTAUR R/B 1.6 21:18:09 10° NW 21:20:31 79° NE 21:23:25 21° ESE
Cosmos 676 Rocket 4.1 21:16:06 10° SSW 21:21:26 85° WNW 21:26:50 10° NNE
SWARM C 4.4 21:18:09 10° N 21:21:31 82° E 21:22:48 35° S
SWARM A 4.1 21:18:15 10° N 21:21:37 90° E 21:22:58 34° S
Meteor 1-25 Rocket 4.3 21:18:03 10° SSW 21:23:38 78° WNW 21:29:18 10° NNE
Cosmos 1470 Rocket 4.0 21:19:31 10° SSW 21:23:49 61° WNW 21:28:11 10° N
Spot 4 4.4 21:27:26 24° SE 21:29:55 46° ENE 21:34:32 10° N
USA 267 3.2 21:23:42 10° ENE 21:30:17 88° SSE 21:36:52 10° WSW
Cosmos 921 Rocket 4.1 21:28:33 10° NW 21:32:25 34° WSW 21:34:51 19° SSW
NOSS 3-2 (A) 3.4 21:28:24 10° SSW 21:34:09 65° SE 21:40:48 10° NE
SAR-Lupe-2 4.4 21:35:42 10° N 21:39:11 49° WNW 21:41:56 15° SW
Cosmos 841 Rocket 3.5 21:34:04 10° NNW 21:39:19 84° ENE 21:42:00 30° SSE
ERS-1 Rocket 4.2 21:36:08 14° SSW 21:40:00 35° W 21:44:37 10° NNW
NOSS 3-2 (C) 3.6 21:35:51 17° SSW 21:40:08 49° SE 21:46:30 10° NE
Cosmos 540 Rocket 3.4 21:35:33 10° NNW 21:40:46 83° ENE 21:43:22 30° SSE
SL-16 R/B 2.3 21:35:35 10° NW 21:41:15 71° WSW 21:44:17 28° SSE
OPS 6432 4.4 21:38:07 10° SW 21:41:51 75° NW 21:44:54 10° NE
Lacrosse 5 2.1 21:38:29 10° WNW 21:43:26 53° SW 21:45:31 32° SSE
Cosmos 1570 Rocket 4.0 21:45:15 10° NNW 21:50:36 81° WSW 21:53:10 32° SSE
Tsikada Rocket 4.3 21:45:12 10° N 21:51:31 58° ENE 21:54:55 27° SE
Cosmos 1741 Rocket 3.9 21:48:23 24° SSW 21:51:36 72° ESE 21:56:54 10° NNE
Cosmos 2219 Rocket 3.3 21:47:04 10° NNW 21:52:23 38° NE 21:56:38 15° ESE
Cosmos 2208 Rocket 4.0 21:47:23 10° NNW 21:52:43 89° WSW 21:55:11 33° SSE
Cosmos 1814 Rocket 3.9 21:47:52 10° NNW 21:53:06 88° ENE 21:55:32 33° SSE
Cosmos 2082 Rocket 3.0 21:49:36 10° SW 21:55:10 53° NW 22:00:44 10° NNE
Cosmos 2237 4.2 21:51:55 10° NNW 21:57:42 85° ENE 22:00:34 31° SE
Cosmos 2084 Rocket 4.2 21:59:01 32° ESE 21:59:01 32° ESE 22:02:36 10° ENE
Terra 3.2 22:00:02 18° SSW 22:02:54 32° W 22:07:11 10° NNW
Cosmos 2322 Rocket 2.4 21:57:57 10° NW 22:03:34 60° WSW 22:06:13 31° S
EO 1 Del DPAF 3.9 22:01:10 10° NNE 22:04:40 36° E 22:04:57 35° ESE
Cosmos 1437 Rocket 4.4 22:06:01 10° NW 22:09:14 26° W 22:10:50 20° SW
Cosmos 2100 Rocket 4.0 22:05:35 23° SSW 22:09:39 79° W 22:15:51 10° N
Cosmos 1242 Rocket 2.8 22:07:56 10° N 22:11:30 56° ENE 22:12:07 48° ESE
Meteor 1-11 Rocket 3.8 22:09:09 33° SSE 22:11:37 63° E 22:17:19 10° NNE
Helios 1A 4.5 22:13:11 21° E 22:14:55 28° ENE 22:18:33 10° N
ERBS 3.3 22:11:49 10° WNW 22:15:02 45° N 22:18:10 10° ENE
Cosmos 1869 Rocket 3.9 22:13:01 29° SSW 22:15:12 64° WNW 22:19:39 10° N
MTI 4.4 22:14:46 10° N 22:17:48 48° WNW 22:18:29 39° WSW
Cosmos 2360 Rocket 2.2 22:12:10 10° NW 22:17:52 79° WSW 22:20:19 35° SSE
COSMOS 2428 3.4 22:13:20 10° NNW 22:18:55 48° NE 22:22:37 21° ESE
ATLAS 3B R/B 3.1 22:21:12 32° SSE 22:23:16 40° ESE 22:29:24 10° NE
Iridium 4 Rocket 3.6 22:21:45 29° SW 22:23:42 51° W 22:27:49 10° N
CRYOSAT 2 4.3 22:19:54 10° N 22:24:49 86° W 22:26:46 38° S
Cosmos 1980 Rocket 4.5 22:22:46 10° WNW 22:25:14 13° W 22:27:40 10° WSW
Cosmos 2173 Rocket 4.2 22:21:11 22° SSW 22:25:15 67° WNW 22:31:23 10° N
Cosmos 1500 4.0 22:25:10 30° SW 22:26:35 45° WNW 22:30:13 10° N
SL-4 R/B 2.5 22:24:44 10° WSW 22:27:13 37° WSW 22:27:13 37° WSW
ALOS 2 2.6 22:27:44 45° SSE 22:29:01 77° ENE 22:33:26 10° NNW
USA 238 DEB 3.8 22:23:36 10° SW 22:30:19 77° NW 22:37:23 10° NE
USA 238 3.8 22:23:43 10° SW 22:30:25 77° NW 22:37:29 10° NE
Cosmos 1725 Rocket 4.0 22:27:19 32° S 22:30:30 83° E 22:36:53 10° NNE
Cosmos 1674 Rocket 3.4 22:27:45 10° N 22:32:07 82° ENE 22:33:13 50° SSE
SL-08 R/B 4.4 22:32:18 32° S 22:35:20 90° SSE 22:41:29 10° N
Cosmos 1536 2.7 22:34:39 56° S 22:35:28 86° E 22:39:28 10° NNE
Cosmos 1666 2.7 22:37:32 54° SW 22:38:15 72° WNW 22:42:01 10° N
Cosmos 2333 Rocket 2.4 22:32:38 10° NNW 22:38:26 72° NE 22:41:19 31° SE
Cosmos 1743 3.4 22:38:17 38° ESE 22:38:35 39° E 22:42:14 10° NNE
Cosmos 1271 Rocket 2.8 22:36:28 10° N 22:40:13 61° ENE 22:40:47 53° ESE
Cosmos 1356 3.4 22:41:30 67° WSW 22:41:48 74° WNW 22:45:15 10° N
Cosmos 2237 Rocket 3.5 22:37:20 10° NNW 22:42:32 35° NE 22:47:32 11° ESE
MOS 1-B Rocket 4.0 22:37:41 10° NNE 22:43:28 69° WNW 22:46:44 26° SW
Cosmos 2016 Rocket 4.2 22:39:51 27° SSW 22:43:28 72° WNW 22:49:53 10° N
Cosmos 2061 Rocket 4.1 22:41:23 27° SSW 22:44:52 70° WNW 22:51:05 10° N
Lacrosse 4 Rocket 2.5 22:45:23 29° ESE 22:45:23 29° ESE 22:48:43 10° NE
Cosmos 1066 Rocket 4.4 22:45:51 10° NNW 22:51:33 64° W 22:53:46 36° SSW
Cosmos 1733 Rocket 3.1 22:50:59 47° SSW 22:52:13 77° WNW 22:56:40 10° N
Meteor 1-23 Rocket 4.5 22:47:35 10° NNW 22:53:21 65° W 22:55:42 36° SSW
SL-27 R/B 3.8 22:53:08 25° W 22:54:19 33° WNW 22:57:24 10° N
Thor Agena Rocket 3.6 22:49:38 10° NNE 22:54:43 72° WNW 22:57:00 33° SW
Cosmos 44 Rocket 3.5 22:50:00 10° NW 22:54:56 70° NE 22:57:30 29° ESE
Cosmos 836 Rocket 4.4 22:51:02 10° NNW 22:56:16 88° WSW 22:58:03 43° SSE
CENTAUR R/B 2.8 22:52:09 10° SW 22:58:26 79° NW 23:05:59 10° NE
Cosmos 968 Rocket 3.9 22:59:01 39° SE 23:00:05 44° ESE 23:04:58 10° NE
Cosmos 1975 3.7 23:02:22 35° ESE 23:02:47 36° E 23:06:30 10° NNE
SL-24 DEB 4.4 22:59:14 10° N 23:04:02 67° E 23:05:18 46° SSE
Cosmos 1782 Rocket 4.2 23:10:37 38° ESE 23:11:22 42° E 23:15:28 10° NNE
Cosmos 1378 3.5 23:08:34 10° NNW 23:12:12 50° W 23:12:29 48° WSW
USA 267 3.6 23:06:45 10° ENE 23:13:14 68° N 23:19:44 10° W
Cosmos 1707 4.1 23:11:34 10° N 23:15:06 31° ENE 23:16:13 26° ESE
Cosmos 1842 3.2 23:13:10 10° N 23:17:08 75° ENE 23:17:41 62° SE
Cosmos 2233 Rocket 4.1 23:14:31 33° SSW 23:17:33 73° WNW 23:23:55 10° N
Cosmos 1464 Rocket 4.4 23:15:36 33° SSE 23:18:09 53° E 23:24:10 10° NNE
Cosmos 2344 4.3 23:10:19 10° NW 23:19:06 77° NE 23:31:17 10° SE
Cosmos 1908 Rocket 3.5 23:18:33 56° S 23:19:27 83° E 23:23:51 10° NNE
Helios 1B rocket 3.9 23:17:51 10° NE 23:21:15 25° E 23:21:48 24° ESE
Meteor 1-21 4.3 23:17:06 10° NNW 23:22:57 78° ENE 23:25:21 37° SSE
SL-16 R/B 4.2 23:21:23 10° WNW 23:24:21 15° W 23:26:08 13° WSW
Cosmos 2227 Rocket 4.2 23:22:42 12° ESE 23:24:27 14° E 23:27:14 10° ENE
NOSS 3-2 (A) 4.5 23:19:23 10° W 23:25:19 50° NNW 23:32:14 10° NE
Lacrosse 5 3.9 23:22:45 10° W 23:24:41 14° WSW 23:24:41 14° WSW
Cosmos 1378 Rocket 4.4 23:23:44 10° NNW 23:27:53 39° W 23:28:49 35° WSW
Cosmos 2322 4.1 23:22:35 10° NW 23:28:00 47° WSW 23:29:31 38° SSW
NOSS 3-2 (C) 4.1 23:25:02 10° WSW 23:31:00 58° NNW 23:37:58 10° NE
Cosmos 1833 4.2 23:28:44 33° SW 23:31:23 81° NW 23:37:06 10° NNE
COSMOS 2487 2.7 23:32:14 56° W 23:32:30 58° WNW 23:35:56 10° NNE
Nadezhda 4 Rocket 4.2 23:28:40 10° N 23:35:00 69° ENE 23:38:04 32° SSE
Cosmos 2219 Rocket 2.4 23:31:03 10° NW 23:36:37 56° WSW 23:38:19 41° SSW
Cosmos 2084 Rocket 4.0 23:35:30 22° WSW 23:38:03 56° NNW 23:42:22 10° NE
Cosmos 783 Rocket 4.4 23:35:20 10° NNW 23:40:36 80° WSW 23:42:22 43° SSE
Cosmos 1975 Rocket 3.1 23:36:57 10° NNW 23:41:27 75° W 23:42:25 53° SSW
Cosmos 1437 3.7 23:41:42 10° N 23:44:30 37° ENE 23:44:30 37° ENE
Cosmos 2322 Rocket 4.3 23:44:25 10° WNW 23:46:28 12° W 23:48:01 11° WSW
Okean 2 Rocket 3.9 23:45:22 33° SE 23:46:31 40° E 23:50:44 10° NNE
Cosmos 2034 Rocket 4.2 23:43:53 34° SSE 23:46:37 61° E 23:52:51 10° NNE
Cosmos 1503 Rocket 4.1 23:45:55 43° S 23:47:39 71° ESE 23:53:02 10° NNE
Landsat 4 3.7 23:45:01 10° NNE 23:48:49 67° ESE 23:49:12 62° SE
Cosmos 1092 Rocket 4.4 23:43:00 10° N 23:49:11 58° ENE 23:52:45 25° SE
YAOGAN 11 4.5 23:48:26 45° SW 23:49:23 53° W 23:53:54 10° NNW
Cosmos 1072 Rocket 4.4 23:46:51 38° S 23:49:24 88° E 23:55:34 10° N
Helios 1A 3.6 23:49:48 40° WSW 23:50:20 42° W 23:54:22 10° NNW
ERBS 2.5 23:48:13 10° WNW 23:51:02 61° WNW 23:51:02 61° WNW
SL-16 R/B 3.5 23:46:16 12° SE 23:51:35 44° ENE 23:57:28 10° N
CZ-2D R/B 4.0 23:47:56 10° NE 23:51:59 21° E 23:54:55 14° SE
SL-16 R/B 3.3 23:47:20 10° NNW 23:52:46 42° NE 23:58:09 10° ESE
Cosmos 1300 Rocket 4.3 23:52:28 35° SE 23:53:29 42° E 23:57:34 10° NNE
Cosmos 1486 Rocket 4.2 23:52:11 35° SW 23:54:23 68° WNW 23:59:36 10° NNE
Cosmos 1544 3.4 23:54:38 50° W 23:55:02 53° WNW 23:58:39 10° N
